User: anonymous   Login
Location: Ladrillo (historical)
(32.8195°N, 117.2231°W)
Time: 08:37:24
(UTC+00:00)
Language:

Nadezhda 3 Rocket - Orbit

View from above orbital plane
View from above orbital plane
View from above satellite
View from above satellite

Ground track
Ground track

The orbit data is extracted from the following two-line orbital elements,

1 21153U 91019B   22224.78017097 -.00000039  00000-0 -55031-4 0  9995
2 21153  82.9222 242.0499 0027843 291.9799 241.5834 13.76047591577288
Epoch (UTC): 12 August 2022 18:43:26
Eccentricity: 0.0027843
inclination: 82.9222°
perigee height: 957 km
apogee height: 998 km
right ascension of ascending node: 242.0499°
argument of perigee: 291.9799°
revolutions per day: 13.76047591
mean anomaly at epoch: 241.5834°
orbit number at epoch: 57728

The dashed part of the orbit path shows where the satellite is in the earth's shadow,  

DLR